Location: Unspecified
(0.0000°N, 0.0000°E)
Time: 13:55:21
(UTC+00:00)

Tiangong - Pass Details

Date: 29 November 2021
Orbit: 379 x 385 km, 41.5° (Epoch: 08 December)

Event Time Altitude Azimuth Distance (km) Brightness Sun altitude
Rises 18:16:42 0° 209° (SSW) 2,255 5.8 -6.6°
Reaches altitude 10° 18:18:59 10° 195° (SSW) 1,399 4.4 -7.1°
Maximum altitude 18:21:40 25° 137° (SE) 811 2.5 -7.7°
Enters shadow 18:24:13 11° 79° (E) 1,350 3.2 -8.3°
